This is the latest recevied weather packets stored in our database for station/object KD8OZS. If no packets are shown the sender has not sent any weather packets the latest 10 day(s).
| Time | Temp. | Humidity | Pressure | Rain* | Wind** | Luminosity | Snow |
|---|---|---|---|---|---|---|---|
| 1777943043 | 18.89° C | 66% | 998.1 hPa | 0 mm | - | 0 W/m² | - |
| 1777942739 | 18.89° C | 65% | 998.1 hPa | 0 mm | - | 0 W/m² | - |
| 1777942436 | 18.89° C | 64% | 998.2 hPa | 0 mm | - | 0 W/m² | - |
| 1777942134 | 18.89° C | 64% | 998 hPa | 0 mm | - | 0 W/m² | - |
| 1777941829 | 18.89° C | 63% | 998 hPa | 0 mm | - | 0 W/m² | - |
| 1777941527 | 18.89° C | 63% | 997.7 hPa | 0 mm | - | 0 W/m² | - |
| 1777941224 | 18.89° C | 63% | 998 hPa | 0 mm | - | 0 W/m² | - |
| 1777940920 | 18.89° C | 62% | 998.1 hPa | 0 mm | - | 0 W/m² | - |
| 1777940617 | 19.44° C | 63% | 998.2 hPa | 0 mm | - | 3 W/m² | - |
| 1777940316 | 19.44° C | 62% | 998 hPa | 0 mm | - | 4 W/m² | - |
| 1777940012 | 19.44° C | 61% | 997.9 hPa | 0 mm | - | 8 W/m² | - |
| 1777939710 | 20° C | 60% | 997.9 hPa | 0 mm | - | 12 W/m² | - |
| 1777939407 | 20° C | 60% | 998.1 hPa | 0 mm | - | 15 W/m² | - |
| 1777939104 | 20° C | 60% | 998 hPa | 0 mm | - | 17 W/m² | - |
| 1777938801 | 20° C | 59% | 997.8 hPa | 0 mm | - | 28 W/m² | - |
| 1777938497 | 20.56° C | 58% | 997.7 hPa | 0 mm | - | 34 W/m² | - |
| 1777938195 | 20.56° C | 58% | 997.9 hPa | 0 mm | - | 26 W/m² | - |
| 1777937891 | 20.56° C | 56% | 997.8 hPa | 0 mm | - | 33 W/m² | - |
| 1777937587 | 21.11° C | 55% | 997.6 hPa | 0 mm | - | 38 W/m² | - |
| 1777937284 | 21.11° C | 54% | 997.6 hPa | 0 mm | - | 39 W/m² | - |
| 1777936981 | 21.11° C | 54% | 997.3 hPa | 0 mm | - | 48 W/m² | - |
| 1777936678 | 21.67° C | 54% | 997.4 hPa | 0 mm | - | 56 W/m² | - |
| 1777936374 | 21.67° C | 55% | 997.5 hPa | 0 mm | - | 70 W/m² | - |
| 1777936070 | 21.11° C | 56% | 997.5 hPa | 0 mm | - | 65 W/m² | - |
| 1777935768 | 21.11° C | 54% | 997.4 hPa | 0 mm | - | 45 W/m² | - |
* Rain latest hour (hover to see other rain measurements)
** Current wind speed in m/s (hover to see current wind gust speed)